Location: Bad Rothenbrunn
(47.2167°N, 11.2167°E)
Time: 11:11:39
(UTC+00:00)

SL-4 R/B - Pass Details

Date: 03 March 2021
Orbit: 428 x 663 km, 51.6° (Epoch: 23 April)

Event Time Altitude Azimuth Distance (km) Brightness Sun altitude
Rises 19:50:59 0° 294° (WNW) 2,443 6.6 -28.7°
Reaches altitude 10° 19:53:10 10° 291° (WNW) 1,550 5.3 -29.0°
Enters shadow 19:54:16 19° 286° (WNW) 1,114 4.3 -29.2°
